Location: downtown San Diego
(32.7310°N, 117.1990°W)
Time: 14:39:31
(UTC-07:00)

Centaur AC-125 - Pass Details

Date: 14 June 2018
Orbit: 327 x 24445 km, 26.7° (Epoch: 20 August)

Event Time Altitude Azimuth Distance (km) Brightness Sun altitude
Rises 20:39:45 0° 234° (SW) 4,956 7.4 -8.3°
Reaches altitude 10° 20:45:43 10° 209° (SSW) 2,242 5.4 -9.3°
Maximum altitude 20:47:49 13° 180° (S) 1,565 4.3 -9.7°
Enters shadow 20:48:58 11° 155° (SSE) 1,457 4.0 -9.9°
